Regional Weather Roundup
Issued by NWS Charleston, WV

Home | Current Version | Previous Version | Graphics & Text | Print | Product List | Glossary On
Versions: 1 2 3 4 5 6 7 8 9 10 11 12 13 14 15 16 17 18 19 20 21 22 23 24 25 26 27 28 29 30 31 32 33 34 35 36 37 38 39 40 41 42 43 44 45 46 47 48 49 50
000
ASUS41 KRLX 041110
RWRRLX
West Virginia Regional Weather Roundup
National Weather Service Charleston WV
700 AM EDT TUE AUG 04 2015

Note: "fair" indicates few or no clouds below 12,000 feet with no
significant weather and/or obstructions to visibility.

WVZ003-041200-
Northern Panhandle of West Virginia

CITY           SKY/WX    TMP DP  RH WIND       PRES   REMARKS
WHEELING       PTCLDY    63  57  81 SW5       29.98R
$$

WVZ009-041200-
Northwest West Virginia

CITY           SKY/WX    TMP DP  RH WIND       PRES   REMARKS
PARKERSBURG    PTCLDY    67  64  90 CALM      30.00R
$$

WVZ006-041200-
Western West Virginia

CITY           SKY/WX    TMP DP  RH WIND       PRES   REMARKS
HUNTINGTON     CLEAR     63  63 100 CALM      29.98R
$$

WVZ015-041200-
West Central West Virginia

CITY           SKY/WX    TMP DP  RH WIND       PRES   REMARKS
CHARLESTON     PTCLDY    63  61  93 CALM      29.99R
$$

WVZ022-031-041200-
North Central West Virginia

CITY           SKY/WX    TMP DP  RH WIND       PRES   REMARKS
CLARKSBURG     CLOUDY    70  66  87 SW3       29.98R
MORGANTOWN     PTCLDY    69  65  86 CALM      29.98S FOG
$$

WVZ025-035-042-045-041200-
Southern West Virginia

CITY           SKY/WX    TMP DP  RH WIND       PRES   REMARKS
BECKLEY        PTCLDY    63  58  83 SW8       30.06R
LOGAN            N/A     63  63 100 CALM      29.98R
BLUEFIELD      PTCLDY    68  59  73 W5        30.08R
LEWISBURG      CLEAR     62  57  83 CALM      30.05R
$$

WVZ047-041200-
Northern Mountains of West Virginia

CITY           SKY/WX    TMP DP  RH WIND       PRES   REMARKS
ELKINS         CLOUDY    70  61  73 S5        30.03R
$$

WVZ052-041200-
Eastern Panhandle of West Virginia

CITY           SKY/WX    TMP DP  RH WIND       PRES   REMARKS
MARTINSBURG    CLEAR     65  65 100 SW3       29.93R
PETERSBURG     CLOUDY    65  64  96 CALM      29.97R FOG
$$


USA.gov is the U.S. government's official web portal to all federal, state and local government web resources and services.